Chehalis, WA
on Friday, December 28, 2012

Friday
Previous Day Next Day
Daily Summary
 ActualAverage (KOLM)Record (KOLM)
Temperature
Mean Temperature °F / °C 38°F / 3°C  
Max Temperature 46°F / 8°C 44°F / 7°C 56°F / 13°C (1980)
Min Temperature 37°F / 3°C 33°F / 1°C 10°F / -12°C (1990)
Degree Days
Heating Degree Days 24 27  
Month to date heating degree days 745  
Since 1 July heating degree days 2190  
Cooling Degree Days 0 0  
Month to date cooling degree days 0  
Year to date cooling degree days 106  
Moisture
Dew Point 38°F / 3°C   
Average Humidity 88    
Maximum Humidity 100    
Minimum Humidity 71    
Precipitation
Precipitation 0.00 in / 0.00 cm 0.23 in / 5.84 cm 1.20 in / 3.05 cm (2011)
Month to date precipitation 6.79  
Year to date precipitation 49.33  
Wind
Wind Speed 3 mph / 5 km/h   
Max Wind Speed 7 mph / 11 km/h   
Max Gust Speed mph / km/h   
Visibility 9 miles / 15 kilometers   
Events     

Key: T is trace of precipitation, MM is missing value
Source: NWS Daily Summary
Time(PST)TemperatureDew PointHumidity Pressure Visibility Wind DirectionWind SpeedGust SpeedPrecipitationEvents Conditions
12:15 AM 39.2°F / 4.0°C 37.4°F / 3.0°C 93% 30.17 in / 1021.6 hPa 10.0 miles / 16.1 kilometers South 4.6 mph / 7.4 km/h - N/A   Overcast
12:35 AM 39.2°F / 4.0°C 37.4°F / 3.0°C 93% 30.17 in / 1021.6 hPa 10.0 miles / 16.1 kilometers South 5.8 mph / 9.3 km/h - N/A   Overcast
12:55 AM 39.2°F / 4.0°C 37.4°F / 3.0°C 93% 30.16 in / 1021.2 hPa 10.0 miles / 16.1 kilometers SSW 5.8 mph / 9.3 km/h - N/A   Overcast
1:15 AM 39.2°F / 4.0°C 37.4°F / 3.0°C 93% 30.16 in / 1021.2 hPa 10.0 miles / 16.1 kilometers SW 5.8 mph / 9.3 km/h - N/A   Overcast
1:35 AM 39.2°F / 4.0°C 37.4°F / 3.0°C 93% 30.16 in / 1021.2 hPa 10.0 miles / 16.1 kilometers South 5.8 mph / 9.3 km/h - N/A   Overcast
1:55 AM 39.2°F / 4.0°C 37.4°F / 3.0°C 93% 30.16 in / 1021.2 hPa 10.0 miles / 16.1 kilometers SSW 4.6 mph / 7.4 km/h - N/A   Overcast
2:15 AM 41.0°F / 5.0°C 35.6°F / 2.0°C 81% 30.16 in / 1021.2 hPa 10.0 miles / 16.1 kilometers SSW 4.6 mph / 7.4 km/h - N/A   Overcast
2:35 AM 41.0°F / 5.0°C 37.4°F / 3.0°C 87% 30.16 in / 1021.2 hPa 10.0 miles / 16.1 kilometers SSW 5.8 mph / 9.3 km/h - N/A   Overcast
2:55 AM 39.2°F / 4.0°C 35.6°F / 2.0°C 87% 30.16 in / 1021.2 hPa 10.0 miles / 16.1 kilometers South 5.8 mph / 9.3 km/h - N/A   Overcast
3:15 AM 39.2°F / 4.0°C 35.6°F / 2.0°C 87% 30.16 in / 1021.2 hPa 10.0 miles / 16.1 kilometers SSW 5.8 mph / 9.3 km/h - N/A   Overcast
3:55 AM 39.2°F / 4.0°C 37.4°F / 3.0°C 93% 30.15 in / 1020.9 hPa 10.0 miles / 16.1 kilometers South 3.5 mph / 5.6 km/h - N/A   Overcast
4:15 AM 39.2°F / 4.0°C 37.4°F / 3.0°C 93% 30.15 in / 1020.9 hPa 10.0 miles / 16.1 kilometers South 3.5 mph / 5.6 km/h - N/A   Overcast
4:55 AM 39.2°F / 4.0°C 37.4°F / 3.0°C 93% 30.14 in / 1020.5 hPa 10.0 miles / 16.1 kilometers South 3.5 mph / 5.6 km/h - N/A   Overcast
5:15 AM 39.2°F / 4.0°C 37.4°F / 3.0°C 93% 30.14 in / 1020.5 hPa 10.0 miles / 16.1 kilometers SSW 3.5 mph / 5.6 km/h - N/A   Overcast
5:35 AM 39.2°F / 4.0°C 35.6°F / 2.0°C 87% 30.14 in / 1020.5 hPa 10.0 miles / 16.1 kilometers SSW 3.5 mph / 5.6 km/h - N/A   Overcast
5:55 AM 39.2°F / 4.0°C 35.6°F / 2.0°C 87% 30.14 in / 1020.5 hPa 10.0 miles / 16.1 kilometers SSW 4.6 mph / 7.4 km/h - N/A   Overcast
6:35 AM 39.2°F / 4.0°C 35.6°F / 2.0°C 87% 30.13 in / 1020.2 hPa 10.0 miles / 16.1 kilometers South 3.5 mph / 5.6 km/h - N/A   Overcast
6:55 AM 39.2°F / 4.0°C 35.6°F / 2.0°C 87% 30.13 in / 1020.2 hPa 10.0 miles / 16.1 kilometers SSW 4.6 mph / 7.4 km/h - N/A   Overcast
7:15 AM 39.2°F / 4.0°C 35.6°F / 2.0°C 87% 30.13 in / 1020.2 hPa 10.0 miles / 16.1 kilometers SW 3.5 mph / 5.6 km/h - N/A   Overcast
7:35 AM 39.2°F / 4.0°C 35.6°F / 2.0°C 87% 30.12 in / 1019.9 hPa 10.0 miles / 16.1 kilometers South 4.6 mph / 7.4 km/h - N/A   Overcast
7:55 AM 39.2°F / 4.0°C 35.6°F / 2.0°C 87% 30.12 in / 1019.9 hPa 10.0 miles / 16.1 kilometers Calm Calm - N/A   Overcast
8:15 AM 39.2°F / 4.0°C 35.6°F / 2.0°C 87% 30.13 in / 1020.2 hPa 10.0 miles / 16.1 kilometers Calm Calm - N/A   Overcast
8:35 AM 37.4°F / 3.0°C 35.6°F / 2.0°C 93% 30.13 in / 1020.2 hPa 10.0 miles / 16.1 kilometers Calm Calm - N/A   Overcast
8:55 AM 37.4°F / 3.0°C 37.4°F / 3.0°C 100% 30.14 in / 1020.5 hPa 5.0 miles / 8.0 kilometers Calm Calm - N/A   Overcast
9:15 AM 39.2°F / 4.0°C 37.4°F / 3.0°C 93% 30.14 in / 1020.5 hPa 6.0 miles / 9.7 kilometers Calm Calm - N/A   Overcast
9:55 AM 39.2°F / 4.0°C 35.6°F / 2.0°C 87% 30.14 in / 1020.5 hPa 10.0 miles / 16.1 kilometers SSW 3.5 mph / 5.6 km/h - N/A   Mostly Cloudy
10:15 AM 41.0°F / 5.0°C 37.4°F / 3.0°C 87% 30.15 in / 1020.9 hPa 10.0 miles / 16.1 kilometers Calm Calm - N/A   Scattered Clouds
10:35 AM 41.0°F / 5.0°C 37.4°F / 3.0°C 87% 30.14 in / 1020.5 hPa 5.0 miles / 8.0 kilometers Calm Calm - N/A   Haze
10:55 AM 41.0°F / 5.0°C 37.4°F / 3.0°C 87% 30.14 in / 1020.5 hPa 10.0 miles / 16.1 kilometers SSE 4.6 mph / 7.4 km/h - N/A   Clear
11:15 AM 42.8°F / 6.0°C 37.4°F / 3.0°C 81% 30.14 in / 1020.5 hPa 9.0 miles / 14.5 kilometers SSE 4.6 mph / 7.4 km/h - N/A   Clear
11:35 AM 44.6°F / 7.0°C 37.4°F / 3.0°C 76% 30.13 in / 1020.2 hPa 10.0 miles / 16.1 kilometers South 4.6 mph / 7.4 km/h - N/A   Clear
11:55 AM 44.6°F / 7.0°C 37.4°F / 3.0°C 76% 30.13 in / 1020.2 hPa 9.0 miles / 14.5 kilometers South 5.8 mph / 9.3 km/h - N/A   Clear
12:15 PM 44.6°F / 7.0°C 35.6°F / 2.0°C 71% 30.13 in / 1020.2 hPa 5.0 miles / 8.0 kilometers South 5.8 mph / 9.3 km/h - N/A   Haze
12:35 PM 44.6°F / 7.0°C 37.4°F / 3.0°C 76% 30.12 in / 1019.9 hPa 8.0 miles / 12.9 kilometers SSE 6.9 mph / 11.1 km/h - N/A   Clear
12:55 PM 44.6°F / 7.0°C 37.4°F / 3.0°C 76% 30.12 in / 1019.9 hPa 10.0 miles / 16.1 kilometers SSE 4.6 mph / 7.4 km/h - N/A   Clear
1:15 PM 44.6°F / 7.0°C 37.4°F / 3.0°C 76% 30.12 in / 1019.9 hPa 9.0 miles / 14.5 kilometers SSE 3.5 mph / 5.6 km/h - N/A   Clear
1:55 PM 46.4°F / 8.0°C 37.4°F / 3.0°C 71% 30.12 in / 1019.9 hPa 10.0 miles / 16.1 kilometers South 3.5 mph / 5.6 km/h - N/A   Mostly Cloudy
2:15 PM 46.4°F / 8.0°C 37.4°F / 3.0°C 71% 30.12 in / 1019.9 hPa 10.0 miles / 16.1 kilometers Calm Calm - N/A   Overcast
2:35 PM 46.4°F / 8.0°C 37.4°F / 3.0°C 71% 30.12 in / 1019.9 hPa 9.0 miles / 14.5 kilometers Calm Calm - N/A   Overcast
2:55 PM 46.4°F / 8.0°C 37.4°F / 3.0°C 71% 30.12 in / 1019.9 hPa 10.0 miles / 16.1 kilometers South 3.5 mph / 5.6 km/h - N/A   Overcast
3:15 PM 46.4°F / 8.0°C 37.4°F / 3.0°C 71% 30.12 in / 1019.9 hPa 10.0 miles / 16.1 kilometers Calm Calm - N/A   Overcast
3:55 PM 44.6°F / 7.0°C 39.2°F / 4.0°C 81% 30.13 in / 1020.2 hPa 10.0 miles / 16.1 kilometers Calm Calm - N/A   Overcast
4:15 PM 44.6°F / 7.0°C 39.2°F / 4.0°C 81% 30.13 in / 1020.2 hPa 7.0 miles / 11.3 kilometers Calm Calm - N/A   Overcast
4:35 PM 44.6°F / 7.0°C 39.2°F / 4.0°C 81% 30.13 in / 1020.2 hPa 10.0 miles / 16.1 kilometers Calm Calm - N/A   Overcast
4:55 PM 44.6°F / 7.0°C 41.0°F / 5.0°C 87% 30.13 in / 1020.2 hPa 10.0 miles / 16.1 kilometers Calm Calm - N/A   Overcast
5:15 PM 44.6°F / 7.0°C 41.0°F / 5.0°C 87% 30.13 in / 1020.2 hPa 10.0 miles / 16.1 kilometers Calm Calm - N/A   Overcast
5:35 PM 42.8°F / 6.0°C 41.0°F / 5.0°C 93% 30.13 in / 1020.2 hPa 10.0 miles / 16.1 kilometers Calm Calm - N/A   Overcast
5:55 PM 42.8°F / 6.0°C 41.0°F / 5.0°C 93% 30.14 in / 1020.5 hPa 10.0 miles / 16.1 kilometers Calm Calm - N/A   Overcast
6:15 PM 41.0°F / 5.0°C 41.0°F / 5.0°C 100% 30.14 in / 1020.5 hPa 10.0 miles / 16.1 kilometers West 3.5 mph / 5.6 km/h - N/A   Overcast
6:35 PM 41.0°F / 5.0°C 39.2°F / 4.0°C 93% 30.14 in / 1020.5 hPa 10.0 miles / 16.1 kilometers Calm Calm - N/A   Overcast
6:55 PM 41.0°F / 5.0°C 39.2°F / 4.0°C 93% 30.14 in / 1020.5 hPa 10.0 miles / 16.1 kilometers Calm Calm - N/A   Overcast
7:15 PM 41.0°F / 5.0°C 39.2°F / 4.0°C 93% 30.15 in / 1020.9 hPa 10.0 miles / 16.1 kilometers Calm Calm - N/A   Overcast
7:35 PM 41.0°F / 5.0°C 39.2°F / 4.0°C 93% 30.15 in / 1020.9 hPa 10.0 miles / 16.1 kilometers Calm Calm - N/A   Overcast
7:55 PM 41.0°F / 5.0°C 39.2°F / 4.0°C 93% 30.15 in / 1020.9 hPa 10.0 miles / 16.1 kilometers Calm Calm - N/A   Overcast
8:15 PM 39.2°F / 4.0°C 39.2°F / 4.0°C 100% 30.14 in / 1020.5 hPa 5.0 miles / 8.0 kilometers Calm Calm - N/A   Overcast
8:35 PM 39.2°F / 4.0°C 39.2°F / 4.0°C 100% 30.15 in / 1020.9 hPa 10.0 miles / 16.1 kilometers Calm Calm - N/A   Overcast
8:55 PM 39.2°F / 4.0°C 39.2°F / 4.0°C 100% 30.15 in / 1020.9 hPa 10.0 miles / 16.1 kilometers Calm Calm - N/A   Overcast
9:15 PM 39.2°F / 4.0°C 39.2°F / 4.0°C 100% 30.15 in / 1020.9 hPa 7.0 miles / 11.3 kilometers Calm Calm - N/A   Overcast
9:35 PM 39.2°F / 4.0°C 39.2°F / 4.0°C 100% 30.15 in / 1020.9 hPa 8.0 miles / 12.9 kilometers Calm Calm - N/A   Overcast
9:55 PM 39.2°F / 4.0°C 39.2°F / 4.0°C 100% 30.16 in / 1021.2 hPa 7.0 miles / 11.3 kilometers Calm Calm - N/A   Overcast
10:15 PM 39.2°F / 4.0°C 39.2°F / 4.0°C 100% 30.16 in / 1021.2 hPa 10.0 miles / 16.1 kilometers Calm Calm - N/A   Overcast
10:35 PM 39.2°F / 4.0°C 39.2°F / 4.0°C 100% 30.16 in / 1021.2 hPa 10.0 miles / 16.1 kilometers SSW 3.5 mph / 5.6 km/h - N/A   Overcast
10:55 PM 39.2°F / 4.0°C 39.2°F / 4.0°C 100% 30.16 in / 1021.2 hPa 7.0 miles / 11.3 kilometers South 3.5 mph / 5.6 km/h - N/A   Overcast
11:15 PM 39.2°F / 4.0°C 37.4°F / 3.0°C 93% 30.17 in / 1021.6 hPa 8.0 miles / 12.9 kilometers SW 3.5 mph / 5.6 km/h - N/A   Overcast
11:35 PM 39.2°F / 4.0°C 37.4°F / 3.0°C 93% 30.17 in / 1021.6 hPa 8.0 miles / 12.9 kilometers SW 3.5 mph / 5.6 km/h - N/A   Overcast
11:55 PM 39.2°F / 4.0°C 37.4°F / 3.0°C 93% 30.17 in / 1021.6 hPa 7.0 miles / 11.3 kilometers Calm Calm - N/A   Overcast
Moon Phase
Dec. 28 Jan. 04 Jan. 11 Jan. 18 Jan. 26
Sunrise:07:56 AM (PST) Moon Rise:05:17 PM (PST)12/28
Sunset:04:31 PM (PST) Moon Set:07:50 AM (PST)12/28

Copyright © 2014 The Weather Underground, Inc.